Temperature
5 5 5 5 5 5 5 5 5 5 5 5 5 5 5 5 5 5 5 5 5 5 5 5 6 6 6 6 6 6 6 6 6 6 6 7 7 7 7 7 7 7 7
4 4 4 4 5 5 5 5 4 4 4 4 4 4 4 4 4 4 5 5 4 5 5 5 5 5 5 5 5 5 5 5 5 5 5 6 6 6 7 7 7 7 7
3 3 4 4 4 4 4 4 4 4 4 4 3 4 4 4 4 4 4 4 4 4 4 4 4 4 4 4 4 5 5 4 5 5 5 5 6 5 6 6 6 7 7
3 3 3 3 3 4 4 4 4 3 3 3 3 3 3 3 3 3 3 4 4 4 4 4 4 4 4 4 4 4 4 4 4 4 4 4 4 4 5 5 6 6 6
2 2 2 2 3 3 3 3 3 3 3 3 3 3 3 3 2 3 3 3 3 3 3 3 3 3 3 3 3 3 3 3 3 3 3 4 4 4 4 4 5 5 5
1 1 2 2 2 2 2 3 3 3 3 2 2 2 2 2 2 2 2 2 2 2 2 2 2 2 2 3 3 3 3 3 3 3 3 3 3 3 3 3 3 4 4
1 1 1 1 1 2 2 2 2 2 2 2 2 2 2 2 1 1 2 2 2 2 2 2 2 2 2 2 2 2 2 2 2 2 2 2 2 3 3 3 3 3 3
1 1 1 1 1 1 2 2 2 2 2 2 2 1 1 1 1 1 1 1 1 1 1 1 1 1 1 1 2 2 2 2 2 2 2 2 2 2 2 2 2 2 2
0 0 0 1 1 1 1 1 1 1 1 1 1 1 1 0 0 0 0 0 0 0 0 1 1 1 1 1 1 1 1 1 1 1 1 1 1 1 1 2 1 1 1
-0 -0 0 0 0 0 0 0 0 0 0 0 0 0 0 -0 -0 -0 -0 -0 -0 0 0 0 0 0 0 0 0 0 1 0 1 1 1 1 1 1 1 1 1 1 1
-0 -0 -0 0 -0 -0 -0 -0 -0 -0 -0 -0 -0 -0 -0 -1 -1 -1 -1 -1 -1 -0 -0 -0 -0 -0 -0 -0 -0 -0 0 -0 0 0 0 0 0 0 0 0 0 0 0
-1 -1 -0 -0 -1 -1 -1 -1 -1 -1 -1 -1 -1 -1 -1 -1 -1 -1 -1 -1 -1 -1 -1 -1 -1 -1 -1 -1 -1 -0 -0 -1 -1 -0 -0 -0 -0 -0 -0 -0 -0 -0 -0
-1 -1 -1 -1 -1 -1 -1 -1 -1 -1 -1 -1 -2 -2 -2 -2 -2 -2 -2 -2 -2 -1 -1 -1 -1 -1 -1 -1 -1 -1 -1 -1 -1 -1 -1 -1 -1 -1 -1 -1 -1 -1 -1
-1 -2 -2 -2 -2 -2 -2 -2 -2 -2 -2 -2 -2 -2 -2 -2 -2 -2 -2 -2 -2 -2 -2 -2 -2 -2 -2 -2 -2 -2 -2 -2 -2 -2 -2 -2 -2 -2 -2 -2 -2 -2 -2
-2 -2 -2 -2 -3 -3 -2 -2 -2 -2 -3 -3 -3 -3 -3 -3 -3 -3 -3 -3 -3 -3 -2 -2 -2 -2 -2 -2 -2 -3 -2 -3 -3 -3 -2 -2 -2 -2 -2 -2 -2 -2 -2
-3 -3 -3 -3 -3 -3 -3 -3 -3 -3 -3 -3 -3 -3 -3 -3 -3 -3 -4 -3 -3 -3 -3 -3 -3 -3 -3 -3 -3 -3 -3 -3 -3 -3 -3 -3 -3 -3 -3 -3 -3 -3 -3
-3 -3 -3 -3 -3 -4 -4 -4 -4 -4 -4 -4 -4 -4 -4 -4 -4 -4 -4 -4 -4 -4 -4 -4 -4 -4 -4 -4 -4 -4 -4 -4 -4 -4 -4 -4 -4 -4 -4 -4 -4 -4 -4
-4 -4 -4 -4 -4 -4 -4 -4 -4 -4 -4 -4 -4 -4 -5 -5 -5 -5 -5 -5 -5 -5 -5 -5 -5 -5 -4 -5 -5 -5 -5 -5 -5 -5 -5 -5 -5 -4 -5 -5 -4 -4 -4
-4 -4 -4 -4 -4 -5 -5 -5 -5 -5 -5 -5 -5 -5 -5 -5 -5 -5 -5 -5 -5 -5 -5 -6 -5 -5 -5 -5 -5 -6 -6 -6 -6 -6 -6 -5 -5 -5 -5 -5 -5 -5 -4
-4 -5 -5 -5 -5 -5 -5 -5 -5 -5 -5 -6 -6 -6 -6 -6 -6 -6 -6 -6 -6 -6 -6 -6 -6 -6 -6 -6 -6 -6 -7 -7 -6 -6 -6 -6 -6 -6 -6 -6 -6 -5 -5
-5 -5 -5 -5 -5 -5 -6 -6 -6 -6 -6 -6 -6 -6 -7 -7 -7 -7 -7 -7 -7 -7 -7 -7 -7 -7 -7 -7 -7 -7 -7 -7 -7 -7 -7 -6 -6 -6 -6 -6 -6 -6 -6
-5 -5 -6 -6 -6 -6 -6 -6 -6 -7 -7 -7 -7 -7 -7 -7 -7 -7 -7 -7 -7 -7 -8 -8 -8 -7 -7 -7 -7 -7 -7 -7 -7 -7 -7 -7 -7 -6 -6 -6 -6 -6 -6
-6 -6 -6 -6 -6 -7 -7 -7 -7 -7 -7 -7 -7 -8 -8 -8 -8 -8 -8 -8 -8 -8 -8 -9 -8 -8 -8 -8 -8 -8 -8 -8 -8 -8 -7 -7 -7 -7 -7 -7 -7 -7 -7
-6 -6 -7 -7 -7 -7 -7 -7 -8 -8 -8 -8 -8 -8 -8 -8 -8 -8 -9 -9 -9 -9 -9 -9 -9 -9 -9 -9 -8 -8 -8 -8 -8 -8 -8 -8 -8 -8 -8 -8 -7 -7 -7
-7 -7 -7 -7 -7 -8 -8 -8 -8 -8 -8 -9 -9 -9 -9 -9 -9 -9 -9 -9 -9 -9 -9 -9 -10 -10 -9 -9 -9 -9 -9 -9 -9 -9 -8 -8 -8 -8 -8 -8 -8 -8 -8
-7 -7 -8 -8 -8 -8 -8 -8 -9 -9 -9 -9 -9 -9 -9 -9 -10 -10 -9 -9 -10 -10 -10 -10 -10 -10 -10 -10 -10 -9 -9 -10 -9 -9 -9 -9 -9 -9 -9 -9 -9 -9 -9
Wind_Speed
5 3 3 3 3 3 3 3 3 3 2 2 2 2 2 2 2 2 3 3 3 4 4 4 3 3 3 3 3 3 3 2 2 2 3 3 4 4 3 3 3 3 4
4 3 3 3 4 4 4 4 4 4 4 3 3 2 3 2 2 2 3 3 4 4 4 4 4 4 4 4 4 3 3 3 2 2 2 3 3 3 3 3 4 4 4
5 4 4 4 4 4 4 4 4 4 4 3 2 2 1 2 2 3 3 4 4 5 5 5 4 5 4 4 5 4 5 4 4 3 3 3 3 2 3 4 4 4 4
4 4 4 4 4 4 4 4 4 4 4 4 4 4 3 3 4 3 3 3 4 5 5 5 5 5 5 5 5 6 5 6 5 4 5 5 3 3 3 4 4 4 5
4 4 4 4 4 3 3 3 3 3 3 4 4 4 4 4 3 3 3 3 3 4 5 5 5 5 5 5 6 6 6 6 6 6 5 5 5 6 4 5 5 5 5
2 3 3 2 2 2 2 3 3 3 3 3 4 5 5 5 4 4 4 3 3 4 5 5 6 6 6 6 6 6 7 7 8 7 7 6 6 6 6 6 6 6 6
1 2 2 2 2 2 2 2 3 3 3 4 4 5 5 6 6 5 5 4 4 4 5 5 6 6 7 7 7 7 8 8 9 8 8 8 8 7 7 7 7 8 6
1 2 2 2 3 3 3 3 3 3 3 4 4 5 5 5 5 6 5 5 5 5 6 6 7 8 8 8 7 7 8 8 9 9 10 8 8 7 7 7 7 7 7
2 2 2 2 3 3 3 4 4 4 4 4 4 5 5 5 6 6 6 5 5 5 6 7 7 8 8 8 8 7 8 8 9 9 9 9 8 8 8 8 8 8 8
2 3 2 2 3 3 3 3 4 5 5 4 4 4 5 6 6 6 6 6 6 6 6 7 7 7 8 8 8 8 8 8 8 7 8 8 7 8 8 8 8 9 10
3 3 3 3 3 3 2 3 3 4 4 4 4 4 4 5 5 5 6 6 6 6 6 7 7 7 7 7 7 8 8 9 9 8 9 9 8 8 8 8 9 9 9
3 3 4 3 3 3 2 3 3 3 4 4 3 4 4 4 4 5 5 5 5 5 6 6 6 7 7 7 8 8 8 9 9 9 9 9 8 9 8 8 10 9 10
3 3 3 3 3 3 3 3 3 3 3 3 3 4 4 4 4 4 5 5 5 5 5 5 6 6 6 6 7 8 8 8 8 8 9 9 9 9 8 9 9 9 9
4 4 3 3 3 3 3 3 3 3 3 3 3 4 4 4 4 4 4 5 5 5 5 5 5 6 6 6 6 7 8 8 8 8 9 9 10 10 9 9 9 9 9
5 4 4 4 3 4 4 4 3 3 3 3 3 4 4 4 4 4 4 4 5 5 5 5 5 6 5 6 6 7 7 7 8 8 8 8 9 10 9 8 9 9 9
6 5 4 4 4 4 4 4 4 4 3 3 4 4 4 4 4 4 4 4 4 5 4 5 5 5 5 5 7 7 7 7 7 7 7 7 8 9 11 12 12 12 11
6 5 5 5 4 4 4 4 4 4 3 3 4 4 4 4 4 4 4 5 5 5 5 5 5 5 6 7 7 7 6 7 7 7 7 7 7 8 8 10 11 12 13
6 6 5 4 4 4 3 3 4 3 3 3 4 4 4 4 4 4 5 5 5 5 5 5 5 6 6 6 7 7 6 6 7 7 8 8 8 8 8 9 10 11 11
6 5 4 4 3 3 3 3 3 3 3 4 4 4 4 4 4 4 5 5 5 5 5 5 6 6 6 6 7 7 5 5 7 7 8 8 9 9 10 10 10 11 10
4 4 3 3 3 3 2 2 3 4 4 4 5 5 4 4 5 5 5 5 4 5 5 5 5 6 6 7 7 7 5 6 6 6 7 8 9 10 11 10 10 11 11
4 3 2 2 3 3 2 3 3 4 5 5 5 5 4 5 5 5 4 4 4 4 5 5 5 5 6 7 7 7 5 6 6 6 6 6 9 11 12 11 10 11 10
4 3 2 3 3 2 2 3 4 5 5 4 4 4 4 4 4 4 4 4 4 4 5 5 5 5 5 6 6 7 7 8 7 7 7 7 9 11 11 10 10 12 10
4 3 3 3 3 3 3 4 5 5 4 4 4 4 4 4 4 4 4 4 4 4 4 4 5 5 5 5 7 8 8 9 7 7 9 10 10 10 9 9 10 9 7
3 3 2 3 3 4 4 4 4 4 4 4 4 4 4 4 4 4 4 4 4 4 4 5 5 5 5 5 5 5 5 6 6 6 7 9 10 8 8 8 7 6 6
3 2 3 3 4 4 4 4 4 4 3 4 4 4 4 4 4 4 4 5 5 5 5 5 6 6 6 6 8 6 5 5 5 6 5 5 5 5 5 5 5 5 5
3 3 3 3 4 4 4 4 4 3 3 4 4 3 3 4 4 4 5 6 6 8 9 9 8 7 9 11 10 9 9 8 8 6 5 5 5 5 5 5 5 5 6
Wind_Direction
240 229 222 221 221 217 214 217 217 212 200 204 222 233 245 245 247 250 251 247 244 245 243 244 226 222 229 239 248 255 245 258 263 252 261 254 238 237 236 237 242 235 233
237 227 221 215 215 217 215 213 217 212 207 214 225 238 241 245 245 251 253 250 248 247 247 250 239 229 231 236 236 247 247 250 246 249 249 249 232 221 231 234 240 243 237
239 231 224 226 223 222 222 218 217 214 211 212 209 208 227 247 247 251 256 256 250 245 240 242 246 238 230 233 232 232 243 240 240 241 239 240 244 264 227 234 234 238 236
244 238 230 234 233 232 228 224 217 212 209 205 210 213 223 235 249 251 249 255 249 248 240 240 244 245 237 234 235 232 241 237 237 236 241 250 260 247 249 231 234 243 246
243 238 236 237 240 237 229 222 214 213 210 208 218 225 236 247 254 256 251 257 258 252 249 246 247 247 244 240 239 237 238 235 235 236 238 243 245 241 245 257 253 250 247
258 247 246 242 245 240 226 218 208 218 217 214 223 228 237 245 251 256 259 260 262 258 253 250 249 250 249 244 241 240 240 240 237 237 236 237 236 233 236 250 259 264 263
267 257 251 247 247 239 230 224 214 222 223 222 230 236 240 244 247 254 255 258 261 262 259 253 250 251 251 249 243 242 240 241 237 235 238 238 240 246 246 250 259 266 269
288 282 266 253 245 238 239 231 226 234 235 234 239 244 245 246 251 253 257 257 259 262 263 255 251 252 253 250 245 245 242 244 241 238 238 239 240 239 242 244 253 264 265
292 294 280 266 258 249 243 239 238 245 246 245 252 252 249 250 256 259 259 260 262 266 262 255 250 250 250 249 246 244 242 245 243 242 240 238 241 241 242 239 237 248 260
313 312 301 282 273 265 260 256 250 250 251 248 249 257 259 259 261 262 262 264 267 268 266 260 254 251 249 248 245 247 244 245 245 242 242 243 243 241 241 240 242 243 251
318 315 310 301 293 282 267 265 264 264 262 259 258 263 269 271 268 265 268 271 272 271 266 261 255 251 250 249 246 244 243 246 247 244 242 244 245 243 243 244 244 242 245
311 312 311 309 302 297 290 282 277 270 271 272 269 269 276 278 281 282 283 282 279 278 271 265 258 253 251 248 248 246 245 246 246 246 246 247 245 245 246 247 247 245 244
312 315 315 307 299 297 292 287 285 282 280 277 274 275 276 279 286 293 294 290 286 285 279 267 263 258 255 253 253 250 247 247 248 248 247 248 246 247 247 247 251 253 251
304 308 308 306 306 303 298 297 296 291 286 280 275 277 283 285 287 290 291 293 293 289 281 273 268 263 258 256 257 257 251 253 254 253 251 250 247 249 248 250 251 252 255
301 298 297 302 307 309 309 309 305 301 291 279 278 284 288 292 293 292 294 298 295 290 286 281 275 271 263 255 253 259 255 256 259 259 256 255 255 257 256 253 253 251 252
292 291 294 297 299 300 303 304 305 301 289 279 281 288 294 300 299 297 300 298 294 291 290 283 279 276 270 273 268 267 262 261 260 262 263 262 259 257 258 258 261 259 255
290 287 284 285 289 290 291 292 298 299 287 284 288 292 297 300 300 299 299 296 295 294 291 287 286 278 277 280 277 275 267 263 265 265 264 264 262 261 260 263 262 262 260
294 288 284 286 289 290 291 295 298 296 291 289 291 296 297 298 300 297 296 299 299 295 292 290 286 277 278 285 286 283 272 267 267 266 265 265 265 264 264 265 265 263 261
293 285 283 283 286 287 293 301 301 301 296 293 295 296 294 294 295 294 296 301 300 298 296 290 290 284 281 285 287 284 277 272 272 271 269 267 266 269 268 266 266 266 266
307 297 298 298 290 293 297 295 297 299 297 299 298 297 293 290 290 293 297 297 295 295 298 296 294 291 283 286 288 285 275 275 278 278 275 270 269 273 273 266 265 265 268
311 307 302 300 297 298 294 289 295 297 302 301 298 296 293 291 292 297 296 297 297 299 300 298 295 293 293 284 283 287 278 276 279 279 278 276 276 274 274 273 268 267 272
314 307 304 305 307 300 288 291 296 303 306 301 297 296 296 298 299 299 301 301 302 302 303 303 304 303 300 297 287 286 284 281 277 277 279 280 284 283 280 275 272 273 275
305 303 297 303 310 305 291 287 297 305 302 298 297 299 301 299 299 295 296 298 297 295 299 301 304 305 303 299 297 292 287 285 282 281 284 287 289 288 283 279 278 276 269
302 299 291 294 302 308 305 296 299 299 292 292 296 298 298 298 297 292 289 289 289 290 293 296 296 298 300 298 298 297 293 290 288 287 285 286 285 282 282 283 279 270 266
296 286 278 281 291 301 304 305 302 295 287 289 293 295 294 294 296 294 287 283 279 280 285 288 287 290 294 299 305 301 296 296 291 293 287 285 286 285 281 282 282 277 270
283 284 285 286 290 295 298 302 298 287 281 286 291 291 293 294 294 296 298 290 284 290 288 288 290 291 294 303 304 304 301 302 299 294 286 288 287 284 284 284 285 281 275
Height
1501 1502 1502 1502 1503 1503 1504 1504 1505 1505 1506 1507 1507 1508 1508 1509 1510 1510 1511 1512 1512 1513 1513 1514 1514 1514 1515 1516 1517 1517 1518 1519 1519 1520 1520 1520 1520 1520 1521 1522 1522 1522 1523
1498 1498 1498 1499 1499 1499 1500 1501 1501 1502 1503 1503 1504 1505 1506 1506 1507 1507 1507 1508 1508 1509 1509 1510 1510 1510 1511 1512 1513 1513 1514 1515 1516 1517 1517 1518 1518 1517 1517 1518 1518 1519 1520
1494 1494 1495 1495 1495 1496 1496 1497 1498 1499 1500 1500 1501 1502 1502 1503 1503 1503 1503 1504 1504 1505 1505 1506 1506 1507 1507 1508 1509 1509 1510 1511 1512 1513 1515 1515 1514 1514 1514 1514 1515 1515 1516
1491 1491 1491 1492 1492 1493 1494 1494 1495 1496 1497 1497 1498 1498 1498 1498 1499 1499 1499 1500 1500 1501 1501 1502 1502 1503 1503 1503 1504 1505 1506 1507 1508 1509 1510 1512 1511 1512 1511 1511 1511 1511 1512
1488 1488 1488 1489 1489 1490 1491 1491 1492 1493 1494 1494 1495 1495 1495 1495 1495 1495 1495 1495 1496 1496 1497 1497 1498 1498 1498 1498 1499 1500 1501 1502 1503 1504 1505 1506 1507 1507 1507 1507 1507 1507 1507
1486 1486 1486 1486 1486 1487 1488 1488 1489 1490 1490 1491 1491 1492 1492 1492 1491 1491 1491 1491 1491 1492 1492 1492 1493 1493 1493 1494 1494 1495 1496 1497 1498 1499 1500 1501 1502 1503 1503 1503 1502 1502 1502
1484 1483 1483 1483 1483 1483 1484 1485 1486 1486 1487 1487 1488 1488 1488 1488 1488 1487 1487 1487 1487 1487 1487 1487 1488 1488 1488 1489 1489 1489 1491 1491 1492 1493 1495 1496 1497 1498 1499 1499 1498 1497 1497
1482 1481 1481 1481 1481 1481 1482 1482 1482 1483 1484 1483 1484 1485 1485 1484 1484 1484 1483 1482 1482 1482 1482 1482 1482 1483 1483 1483 1484 1484 1485 1485 1486 1487 1489 1490 1491 1492 1493 1494 1494 1493 1492
1480 1479 1479 1479 1479 1479 1479 1480 1479 1480 1480 1480 1480 1480 1480 1480 1480 1479 1479 1478 1478 1477 1477 1477 1477 1477 1477 1478 1478 1478 1479 1480 1480 1481 1483 1484 1485 1486 1487 1487 1488 1489 1487
1478 1478 1478 1477 1477 1477 1477 1477 1477 1477 1477 1477 1476 1476 1476 1476 1475 1475 1474 1473 1473 1472 1472 1471 1471 1472 1472 1472 1473 1473 1473 1474 1474 1475 1476 1477 1479 1480 1480 1481 1481 1482 1482
1477 1476 1476 1475 1475 1475 1475 1474 1474 1474 1474 1473 1472 1472 1471 1471 1470 1469 1469 1468 1467 1467 1466 1466 1466 1466 1466 1467 1467 1467 1467 1468 1469 1469 1470 1471 1472 1473 1474 1474 1474 1475 1475
1476 1475 1474 1473 1473 1472 1472 1471 1471 1470 1470 1469 1468 1468 1467 1466 1465 1464 1463 1463 1462 1461 1461 1461 1460 1460 1460 1461 1461 1461 1461 1462 1462 1462 1463 1464 1465 1466 1466 1467 1467 1467 1468
1474 1473 1472 1471 1471 1470 1469 1468 1467 1467 1466 1465 1464 1463 1462 1461 1460 1459 1459 1458 1456 1456 1455 1455 1454 1455 1455 1454 1454 1455 1455 1455 1455 1456 1456 1457 1458 1458 1459 1460 1460 1460 1461
1472 1471 1470 1469 1468 1467 1466 1465 1464 1464 1463 1462 1461 1459 1459 1458 1456 1455 1454 1453 1452 1451 1450 1449 1449 1449 1449 1448 1448 1449 1449 1449 1449 1449 1450 1450 1451 1452 1453 1453 1453 1454 1454
1469 1468 1467 1466 1465 1464 1463 1462 1461 1460 1459 1458 1457 1456 1455 1454 1452 1451 1450 1448 1447 1446 1445 1444 1444 1443 1443 1443 1443 1443 1442 1442 1442 1442 1443 1443 1444 1445 1446 1446 1446 1447 1447
1466 1465 1464 1463 1462 1461 1460 1459 1458 1457 1456 1455 1454 1453 1451 1449 1448 1447 1445 1444 1443 1442 1441 1440 1439 1437 1437 1437 1437 1437 1436 1436 1436 1436 1436 1437 1437 1437 1438 1439 1440 1440 1440
1463 1462 1461 1460 1459 1458 1457 1456 1455 1454 1453 1452 1451 1449 1447 1446 1444 1443 1442 1441 1439 1438 1436 1435 1433 1432 1432 1433 1432 1431 1430 1430 1430 1430 1430 1430 1431 1431 1431 1432 1433 1433 1433
1461 1459 1458 1457 1456 1455 1454 1453 1452 1451 1450 1448 1447 1445 1444 1442 1441 1440 1438 1437 1435 1433 1432 1430 1429 1428 1427 1427 1426 1425 1425 1424 1424 1424 1425 1424 1424 1425 1425 1426 1425 1425 1426
1458 1456 1455 1454 1453 1452 1451 1450 1449 1448 1447 1445 1444 1442 1441 1439 1437 1436 1434 1433 1431 1429 1427 1425 1424 1422 1422 1422 1421 1420 1419 1419 1419 1419 1419 1418 1418 1418 1419 1419 1418 1418 1418
1455 1453 1452 1451 1450 1449 1448 1447 1446 1445 1443 1442 1440 1439 1438 1436 1434 1432 1431 1429 1428 1425 1423 1421 1419 1418 1417 1417 1416 1416 1415 1414 1414 1413 1413 1412 1412 1412 1413 1412 1412 1411 1411
1452 1451 1450 1448 1447 1446 1445 1444 1443 1442 1440 1439 1437 1436 1434 1433 1431 1429 1428 1426 1424 1422 1420 1418 1417 1415 1414 1413 1412 1412 1411 1410 1409 1408 1407 1407 1407 1407 1407 1406 1406 1405 1405
1449 1448 1447 1446 1445 1444 1442 1441 1440 1439 1437 1436 1434 1433 1431 1430 1428 1426 1424 1422 1420 1418 1416 1414 1412 1411 1410 1409 1408 1408 1407 1406 1404 1403 1402 1402 1402 1401 1400 1400 1399 1399 1399
1447 1446 1444 1443 1442 1441 1440 1438 1437 1436 1434 1432 1431 1429 1428 1426 1425 1423 1421 1419 1417 1416 1414 1412 1409 1408 1407 1405 1404 1403 1402 1401 1400 1398 1397 1397 1396 1395 1394 1393 1393 1393 1393
1444 1443 1441 1440 1439 1438 1437 1436 1434 1433 1431 1429 1428 1426 1425 1423 1422 1420 1419 1417 1415 1413 1411 1409 1407 1405 1403 1402 1401 1399 1398 1396 1395 1394 1392 1392 1391 1390 1388 1388 1387 1386 1386
1441 1440 1439 1437 1436 1435 1434 1432 1431 1430 1428 1426 1425 1423 1422 1420 1418 1417 1416 1414 1412 1411 1409 1407 1405 1403 1401 1399 1398 1396 1394 1393 1391 1389 1388 1386 1385 1384 1383 1382 1381 1381 1380
1438 1437 1436 1435 1433 1432 1431 1429 1428 1427 1425 1423 1421 1420 1418 1417 1415 1413 1412 1410 1409 1407 1405 1404 1402 1399 1398 1396 1394 1392 1390 1388 1387 1385 1383 1382 1380 1379 1378 1377 1376 1375 1375